DW0946 Weather Reports


time (UTC)temp
C
wind
direction
speed
KPH
gust
KPH
rain 1hr
cm
rain 24hr
cm
rain mn
cm
humidity
%
barometer
mb
20260508111545 3 165 0.0 4.8 0.00 0.00 0.00 89 1013.6
20260508110034 3 163 0.0 0.0 0.00 0.00 0.00 90 1013.5
20260508104536 2 177 0.0 0.0 0.00 0.00 0.00 90 1013.4
20260508103036 2 177 0.0 0.0 0.00 0.00 0.00 91 1013.3
20260508101533 2 173 0.0 1.6 0.00 0.00 0.00 91 1013.3
20260508100032 2 173 0.0 0.0 0.00 0.00 0.00 91 1013.2
20260508094530 2 173 0.0 0.0 0.00 0.00 0.00 90 1013.3
20260508093031 2 173 0.0 0.0 0.00 0.00 0.00 90 1013.3
20260508091527 2 173 0.0 0.0 0.00 0.00 0.00 89 1013.4
20260508090024 3 173 0.0 0.0 0.00 0.00 0.00 89 1013.4
20260508084523 3 173 0.0 0.0 0.00 0.00 0.00 88 1013.3
20260508083022 3 173 0.0 0.0 0.00 0.00 0.00 88 1013.4
20260508081523 4 173 0.0 0.0 0.00 0.00 0.00 88 1013.4
20260508080022 4 173 0.0 0.0 0.00 0.00 0.00 88 1013.5
20260508074524 3 173 0.0 0.0 0.00 0.00 0.00 88 1013.5
20260508073024 3 173 0.0 0.0 0.00 0.00 0.00 89 1013.6
20260508071520 3 173 0.0 0.0 0.00 0.00 0.00 89 1013.7
20260508070019 3 173 0.0 0.0 0.00 0.00 0.00 89 1013.6
20260508064525 3 173 0.0 0.0 0.00 0.00 0.00 89 1013.4
20260508063016 3 169 0.0 0.0 0.00 0.00 0.00 89 1013.2
20260508061516 3 172 0.0 0.0 0.00 0.00 0.00 89 1013.3
20260508060015 3 172 0.0 0.0 0.00 0.00 0.00 89 1013.4
20260508054513 3 172 0.0 0.0 0.00 0.00 0.00 88 1013.5
20260508053011 3 172 0.0 0.0 0.00 0.00 0.00 89 1013.8
20260508051520 3 172 0.0 1.6 0.00 0.00 0.00 88 1013.9
20260508050010 3 172 0.0 1.6 0.00 0.00 0.00 88 1013.8
20260508044508 3 323 0.0 0.0 0.00 0.00 0.00 88 1014.0
20260508043017 3 323 0.0 0.0 0.00 0.00 0.00 87 1013.8
20260508041507 3 323 0.0 0.0 0.00 0.00 0.00 87 1013.9
20260508040002 3 323 0.0 0.0 0.00 0.00 0.00 86 1013.7
20260508034501 3 323 0.0 0.0 0.00 0.00 0.00 84 1013.6
20260508033103 4 323 0.0 0.0 0.00 0.00 0.00 82 1013.6
20260508031603 5 323 0.0 0.0 0.00 0.00 0.00 79 1013.6
20260508030059 5 323 0.0 0.0 0.00 0.00 0.00 78 1013.6
20260508024605 5 321 0.0 0.0 0.00 0.00 0.00 75 1013.7
20260508023058 6 322 0.0 0.0 0.00 0.00 0.00 71 1013.6
20260508021609 6 322 0.0 0.0 0.00 0.00 0.00 69 1013.5
20260508020059 7 321 0.0 1.6 0.00 0.00 0.00 63 1013.5
20260508014559 7 321 0.0 0.0 0.00 0.00 0.00 60 1013.4
20260508013055 7 321 0.0 0.0 0.00 0.00 0.00 59 1013.2
20260508011607 7 322 0.0 0.0 0.00 0.00 0.00 59 1013.1
20260508010055 8 321 0.0 0.0 0.00 0.00 0.00 58 1012.9
20260508004558 8 321 0.0 0.0 0.00 0.00 0.00 55 1012.8
20260508003053 9 321 0.0 0.0 0.00 0.00 0.00 55 1012.7
20260508001553 10 321 0.0 0.0 0.00 0.00 0.00 53 1012.7
20260508000051 11 321 0.0 3.2 0.00 0.00 0.00 50 1012.6
20260507234555 11 250 0.0 6.4 0.00 0.00 0.00 49 1012.5
20260507233050 12 248 0.0 3.2 0.00 0.00 0.00 48 1012.3
20260507231552 12 255 0.0 8.0 0.00 0.00 0.00 46 1012.2
20260507230049 12 291 0.0 8.0 0.00 0.00 0.00 43 1012.5
20260507224549 13 276 0.0 6.4 0.00 0.00 0.00 46 1012.4
20260507223053 12 349 4.8 11.3 0.00 0.00 0.00 49 1012.4
20260507221547 13 286 3.2 16.1 0.00 0.00 0.00 44 1012.4
20260507220046 14 291 6.4 14.5 0.00 0.00 0.00 40 1012.2
20260507214545 15 294 3.2 14.5 0.00 0.00 0.00 45 1012.0
20260507213048 14 263 4.8 14.5 0.00 0.00 0.00 47 1011.7
20260507211645 14 316 3.2 16.1 0.00 0.00 0.00 46 1011.6
20260507210045 15 276 4.8 12.9 0.00 0.00 0.00 44 1011.2
20260507204545 15 303 3.2 17.7 0.00 0.00 0.00 43 1011.1
20260507203044 15 258 0.0 4.8 0.00 0.00 0.00 42 1011.3
20260507201540 15 293 1.6 12.9 0.00 0.00 0.00 43 1011.2
20260507200039 16 253 1.6 9.7 0.00 0.00 0.00 41 1011.4
20260507194537 16 256 3.2 8.0 0.00 0.00 0.00 38 1011.4
20260507193047 16 179 0.0 14.5 0.00 0.00 0.00 40 1011.6
20260507191535 16 108 3.2 9.7 0.00 0.00 0.00 42 1011.5
20260507190034 16 318 3.2 14.5 0.00 0.00 0.00 41 1011.7
20260507184530 16 134 6.4 14.5 0.00 0.00 0.00 45 1011.8
20260507183034 15 286 4.8 16.1 0.00 0.00 0.00 41 1011.8
20260507181528 15 113 3.2 11.3 0.00 0.00 0.00 46 1011.9
20260507180027 15 239 0.0 9.7 0.00 0.00 0.00 44 1012.0
20260507174524 15 276 1.6 14.5 0.00 0.00 0.00 50 1012.1
20260507173035 15 204 3.2 9.7 0.00 0.00 0.00 48 1012.1
20260507171521 15 127 1.6 9.7 0.00 0.00 0.00 48 1012.2
20260507170020 15 267 3.2 16.1 0.00 0.00 0.00 47 1012.4
20260507164519 15 309 3.2 12.9 0.00 0.00 0.00 47 1012.5
20260507163015 15 145 3.2 14.5 0.00 0.00 0.00 47 1012.5
20260507161521 15 290 0.0 16.1 0.00 0.00 0.00 46 1012.6
20260507160013 14 291 1.6 9.7 0.00 0.00 0.00 42 1012.6
20260507154518 14 286 1.6 12.9 0.00 0.00 0.00 44 1012.7
20260507153013 14 151 4.8 12.9 0.00 0.00 0.00 43 1012.7
20260507151510 14 181 1.6 11.3 0.00 0.00 0.00 47 1012.6
20260507150011 14 15 1.6 11.3 0.00 0.00 0.00 46 1012.7
20260507144618 13 291 4.8 12.9 0.00 0.00 0.00 50 1012.9
20260507143008 13 110 0.0 9.7 0.00 0.00 0.00 49 1012.9
20260507141505 13 236 3.2 11.3 0.00 0.00 0.00 49 1013.1
20260507140006 12 273 1.6 6.4 0.00 0.00 0.00 58 1013.3
20260507134601 12 92 0.0 0.0 0.00 0.00 0.00 62 1013.4
20260507133058 12 288 0.0 0.0 0.00 0.00 0.00 67 1013.6
20260507131554 12 262 0.0 0.0 0.00 0.00 0.00 71 1013.7
20260507130055 10 228 0.0 0.0 0.00 0.00 0.00 73 1013.7
20260507124546 10 293 0.0 1.6 0.00 0.03 0.00 77 1013.6
20260507123047 9 130 0.0 3.2 0.00 0.03 0.00 85 1013.7
20260507121539 7 226 0.0 0.0 0.00 0.03 0.00 90 1013.7
20260507120039 6 248 0.0 0.0 0.00 0.03 0.00 92 1013.6
20260507114537 4 248 0.0 0.0 0.00 0.03 0.00 93 1013.6
20260507113036 3 248 0.0 0.0 0.00 0.03 0.00 93 1013.5